Content
SEND FEEDBACK

Daily
Averages
Monthly
Summary
Philippines

QUEZON CITY, PHILIPPINES


Home > Asia > Philippines
Elevation: 46 meters     Latitude: 14 39N     Longitude: 121 03E

WEATHER
 
SELECT A DAY
Number of Records: 172,604;   Date Range: 7/1/96 - 8/28/14
 
SHARE

PRINT THIS DATA

[ ← Previous Day ]
WEATHER ALMANAC - 5 FEBRUARY, 2013
[ Next Day → ]
[ °F ]   °C
Weather ElementAverageHighLow
Temperature26.9 °C32 °C (2:00 pm)23 °C (6:00 am)
Dewpoint20.4 °C22.2 °C (2:00 am)19 °C (3:00 pm)
Humidity66.7 %83 % (3:00 am)41 % (2:00 pm)
Barometer1014.6 hPa1016.3 hPa (8:00 am)1012.2 hPa (3:00 pm)
Wind Speed10.6 km/h22.2 km/h (4:00 pm)
Weather ElementAverage
Visibility9.8 km
Wind DirectionESE (115.7 °)

Weather ElementTotal
Precipitation---
Cooling Degree Days9.2 (Base 18.3)
Growing Degree Days17.5 (Base 10)
Averaged from 31 records on 5 February, 2013
WEATHER CONDITIONS BREAKOUT
WIND DIRECTION BREAKOUT
WEATHER BY HOUR - 5 FEBRUARY, 2013
[ °F ]   °C
Local TimeTemperatureDewpointHumidityBarometerVisibilityWind DirectionWind SpeedGust SpeedPrecipitationEventsConditions
1:00 AM26 °C21 °C74 %1015.2 hPa10 kmESE (110°)9.3 km/hPartly Cloudy
2:00 AM25 °C22.2 °C81 %1015.6 hPa9.7 kmEast (100°)7.2 km/hHaze
2:00 AM25 °C21 °C78 %1015.2 hPa10 kmEast (100°)7.4 km/hPartly Cloudy
3:00 AM24 °C21 °C83 %1014.2 hPa10 kmEast (80°)5.6 km/hPartly Cloudy
4:00 AM24 °C20 °C78 %1014.2 hPa10 kmVariable3.7 km/hPartly Cloudy
5:00 AM23.3 °C20 °C78 %1014.9 hPa9.7 kmCalmHaze
5:00 AM24 °C20 °C78 %1014.2 hPa10 kmCalmPartly Cloudy
6:00 AM23 °C20 °C83 %1015.2 hPa10 kmCalmPartly Cloudy
7:00 AM24 °C20 °C78 %1015.2 hPa10 kmEast (90°)3.7 km/hPartly Cloudy
8:00 AM26.1 °C20.6 °C65 %1016.3 hPa9.7 kmENE (60°)10.8 km/hHaze
8:00 AM26 °C21 °C74 %1016.3 hPa10 kmENE (60°)5.6 km/hPartly Cloudy
9:00 AM28 °C21 °C66 %1016.3 hPa10 kmEast (90°)3.7 km/hPartly Cloudy
10:00 AM29 °C20 °C58 %1016.3 hPa10 kmEast (90°)9.3 km/hPartly Cloudy
11:00 AM27.8 °C21.1 °C59 %1016.3 hPa9.7 kmWest (270°)10.8 km/hHaze
11:00 AM28 °C21 °C66 %1016.3 hPa10 kmWest (270°)11.1 km/hPartly Cloudy
12:00 PM28 °C21 °C66 %1015.2 hPa10 kmNW (320°)13 km/hScattered Clouds
1:00 PM31 °C21 °C55 %1014.2 hPa10 kmSE (130°)13 km/hMostly Cloudy
2:00 PM31.7 °C20 °C41 %1012.9 hPa9.7 kmESE (120°)14.3 km/hHaze
2:00 PM32 °C20 °C49 %1013.2 hPa10 kmESE (120°)16.7 km/hPartly Cloudy
3:00 PM31 °C19 °C49 %1012.2 hPa10 kmSE (130°)20.4 km/hPartly Cloudy
4:00 PM30 °C19 °C51 %1012.2 hPa10 kmSE (130°)22.2 km/hPartly Cloudy
5:00 PM29.4 °C20 °C47 %1012.5 hPa9.7 kmSE (130°)18 km/hPartly Cloudy
5:00 PM30 °C20 °C55 %1012.2 hPa10 kmSE (130°)18.5 km/hScattered Clouds
6:00 PM28 °C20 °C62 %1013.2 hPa10 kmESE (120°)18.5 km/hScattered Clouds
7:00 PM27 °C21 °C70 %1013.2 hPa10 kmESE (110°)14.8 km/hPartly Cloudy
8:00 PM26.1 °C20.6 °C64 %1014.2 hPa9.7 kmESE (110°)14.3 km/hHaze
8:00 PM26 °C21 °C74 %1014.2 hPa10 kmESE (110°)14.8 km/hPartly Cloudy
9:00 PM26 °C20 °C69 %1014.2 hPaESE (110°)11.1 km/hPartly Cloudy
10:00 PM25 °C20 °C74 %1014.2 hPa10 kmESE (120°)11.1 km/hPartly Cloudy
11:00 PM25 °C20.6 °C69 %1015.2 hPa9.7 kmSE (130°)10.8 km/hHaze
11:00 PM25 °C20 °C74 %1014.2 hPa10 kmSE (130°)11.1 km/hPartly Cloudy
Hourly data recorded from RPLL, located 0 kilometers away from Quezon City, Philippines







STORIES FROM OUR PARTNERS